Tracking 19485 objects as of 21-Jan-2019
HD Live streaming from Space Station
objects crossing your sky now

INTELSAT 802

Track INTELSAT 802 now!
INTELSAT 802 is classified as:


NORAD ID: 24846
Int'l Code: 1997-031A
Perigee: 36,276.2 km
Apogee: 36,546.2 km
Inclination: 6.1 °
Period: 1,467.8 minutes
Semi major axis: 42782 km
RCS: 6.3096 m2 (large)
Launch date: June 25, 1997
Source: International Telecommunications Satellite Organization (ITSO)
Launch site: FRENCH GUIANA (FRGUI)

64 C-band, 16 Ku-band; broadcasting, business services, direct-to-home TV broadcasting, telecommunications, VSAT networks; Pacific Ocean region.
aabbcc
Your satellite tracking list
Your tracking list is empty




NASA's NSSDC Master Catalog

Two Line Element Set (TLE):
1 24846U 97031A   19020.88305716 -.00000116 +00000-0 +00000-0 0  9993
2 24846 006.0897 059.8523 0031561 230.9592 263.5968 00.98108811078408
Source of the keplerian elements: AFSPC